Wind_Speed
16 14 9 5 5 7 10 13 16 18 21 25 26 27 29 32 30 32 32 29 29 31 30 29 31 30 29 28 27 26 26 24 17 16 16 16 18 17 13 18 22 24 22
20 15 13 8 7 7 8 12 15 18 21 25 29 31 28 28 30 31 31 31 31 29 31 30 30 28 29 29 29 30 29 30 26 21 22 23 21 23 17 16 18 21 22
20 16 14 12 10 10 9 9 14 17 18 21 24 28 30 29 27 25 27 29 30 31 30 30 31 30 32 32 31 29 29 29 31 25 23 22 24 23 21 20 20 20 20
20 17 16 15 14 12 10 10 11 18 21 17 19 23 26 25 24 24 24 25 26 28 28 29 30 31 31 30 29 30 30 28 29 27 25 25 21 23 20 21 22 22 21
20 18 16 15 15 14 12 10 11 10 19 21 21 19 21 21 22 22 23 25 27 28 29 29 29 30 31 31 28 29 29 27 25 24 20 22 22 20 27 28 26 22 19
20 19 17 16 16 17 16 15 12 12 13 18 22 24 24 23 25 25 27 29 30 31 29 30 30 29 30 32 33 34 32 31 26 24 22 22 26 32 33 29 22 14 5
20 20 19 17 16 18 18 16 14 14 10 18 20 21 23 25 25 26 27 28 28 28 28 28 28 30 31 33 31 31 35 32 35 30 24 25 24 36 32 26 22 21 18
20 21 20 20 17 18 17 18 17 17 14 9 19 25 28 29 28 28 28 27 29 28 29 30 29 28 28 29 26 26 29 29 33 32 30 26 30 29 26 23 26 23 17
22 23 23 21 20 18 18 18 18 18 19 14 10 19 23 30 28 26 27 26 27 30 31 30 27 27 27 22 23 23 25 27 25 29 33 25 25 22 21 19 20 16 13
24 24 25 23 19 17 17 18 17 15 20 18 13 14 21 27 28 23 22 24 24 26 28 30 29 27 27 25 25 23 24 24 22 21 23 27 28 24 21 20 22 23 16
26 24 23 21 22 20 19 16 17 15 20 19 15 15 20 22 26 22 22 27 27 23 24 25 29 28 27 26 24 25 27 23 22 22 24 25 23 22 21 20 21 21 22
26 23 23 21 21 19 19 18 16 14 16 18 18 20 10 17 21 22 23 24 27 24 24 23 25 25 28 28 27 26 26 25 23 22 24 26 25 25 23 22 21 21 20
26 24 23 21 19 20 19 17 17 15 15 15 13 16 16 10 9 14 21 22 28 29 29 30 27 23 23 24 27 27 26 26 25 23 24 25 25 23 23 23 22 20 19
24 24 23 22 22 22 20 17 15 14 15 14 14 15 17 21 14 11 11 16 18 23 29 32 31 28 23 22 24 27 29 29 29 27 26 23 22 22 25 26 24 22 18
22 21 21 19 22 21 20 18 18 16 16 18 18 16 16 19 19 20 22 18 15 18 21 25 26 25 24 23 24 26 27 28 27 27 25 24 23 23 26 27 26 25 19
20 20 20 21 22 20 20 22 17 15 16 15 14 15 19 21 22 22 22 20 20 18 19 19 20 24 25 25 28 28 26 29 31 30 28 26 26 26 27 28 29 28 27
20 18 20 21 19 19 20 19 22 26 16 12 12 13 14 16 17 18 19 19 20 19 20 20 21 24 26 28 30 31 32 33 32 31 31 30 29 29 29 31 32 31 26
24 18 19 18 19 18 19 18 18 18 21 23 17 15 15 15 16 16 17 17 19 20 22 23 25 26 29 31 33 35 35 31 33 32 33 32 32 32 31 29 29 26 26
23 21 19 18 22 18 17 18 19 18 17 20 22 18 19 21 17 13 14 14 18 19 18 23 26 30 32 34 36 36 38 38 38 36 34 35 33 32 29 29 30 29 27
21 19 17 20 20 21 19 19 19 18 18 19 18 21 23 24 20 21 14 17 19 22 21 23 24 27 30 33 35 35 35 35 35 35 35 35 32 34 32 30 30 30 28
20 22 17 18 19 19 18 19 20 20 19 19 19 18 19 16 18 18 17 14 15 18 21 22 22 23 24 26 27 29 31 32 34 33 34 33 34 32 31 31 32 32 32
17 19 18 18 18 17 18 19 19 20 19 19 21 19 17 16 14 15 14 14 13 12 12 17 18 19 20 23 25 28 30 30 29 30 30 31 31 32 34 33 32 32 32
15 16 17 17 17 16 18 18 18 18 20 20 19 19 18 17 15 14 14 13 13 11 9 9 12 15 17 19 22 27 28 29 32 34 34 34 33 33 34 33 32 30 29
11 12 12 12 15 16 17 18 17 15 16 18 19 18 17 15 14 14 13 11 10 9 6 6 9 13 14 18 20 23 27 28 30 31 34 35 34 34 32 31 30 30 30
8 10 10 9 11 12 15 17 17 16 16 17 18 17 16 14 15 14 13 12 10 7 4 1 2 8 12 15 18 20 23 26 29 29 28 28 29 30 30 30 29 27 26
7 8 9 8 9 10 11 13 13 13 14 14 14 15 15 15 14 14 14 13 13 12 11 11 11 12 15 17 18 20 20 21 23 24 26 27 28 27 26 27 26 26 25
Wind_Direction
6 0 356 328 299 278 249 242 245 238 241 244 242 241 238 237 236 242 236 236 241 240 238 242 243 251 254 252 251 245 243 245 243 256 258 268 258 253 250 242 242 243 246
1 1 2 355 331 304 279 252 248 246 245 247 244 237 237 234 235 238 234 236 241 238 242 240 241 244 250 255 254 251 245 246 242 252 259 258 253 245 245 240 236 238 241
353 358 3 9 2 346 314 281 248 247 248 243 240 234 231 229 227 238 241 239 241 244 243 243 245 245 246 245 246 245 247 250 249 243 250 250 240 240 241 240 237 238 242
357 354 3 2 358 346 335 307 265 245 241 244 239 236 228 223 225 232 236 240 242 246 248 249 250 248 249 249 245 248 249 244 243 235 234 236 234 233 239 246 242 242 245
353 353 352 351 353 348 337 325 297 259 238 236 236 230 227 224 225 230 239 244 247 247 247 247 249 251 255 257 246 244 244 236 230 223 218 221 224 223 229 238 241 243 250
352 349 346 347 347 348 344 336 339 298 249 235 229 229 232 234 237 240 243 245 246 247 247 251 252 253 255 256 257 250 245 234 222 216 216 211 217 224 230 232 230 225 260
348 348 348 343 341 339 344 347 338 327 290 252 242 237 236 237 241 244 245 246 248 248 249 246 249 251 253 254 252 254 245 237 242 235 221 216 222 228 226 220 227 231 229
348 345 344 340 336 333 335 341 346 338 319 301 256 245 242 242 243 244 247 241 242 248 250 253 250 243 248 248 250 247 250 249 241 238 236 246 237 235 223 243 248 230 242
346 341 337 334 328 327 327 330 333 340 332 308 287 259 256 252 247 247 248 238 238 244 246 249 249 251 252 248 241 247 256 255 254 250 242 243 247 243 244 242 229 221 233
341 335 334 331 321 314 316 317 324 336 325 318 298 277 258 254 252 257 236 235 240 241 244 245 249 250 253 251 246 242 232 250 235 230 232 232 237 244 241 234 235 222 213
337 336 335 339 330 323 320 322 322 321 327 328 322 300 263 250 257 249 235 233 236 241 244 244 248 248 247 248 243 240 237 246 240 239 238 234 230 230 229 234 239 240 227
339 335 338 345 336 330 329 320 319 317 318 330 335 322 302 256 255 255 239 233 237 233 236 244 249 248 249 244 244 243 242 247 242 240 232 230 230 229 234 235 234 238 237
342 335 339 341 347 332 328 324 326 329 316 319 326 312 330 328 285 264 252 247 239 241 249 253 256 253 257 251 240 243 236 232 232 224 223 230 232 230 228 224 224 223 225
340 337 341 341 340 339 333 330 325 323 314 316 318 314 323 319 318 316 300 277 253 252 248 252 253 251 254 255 247 238 232 225 225 224 229 231 230 220 215 214 206 206 208
338 339 340 340 340 334 329 325 320 313 309 313 297 306 308 302 307 304 304 297 290 276 265 247 242 237 234 237 239 234 228 226 224 226 228 226 224 215 213 211 211 205 203
339 342 338 338 340 336 331 325 323 312 311 299 294 289 296 293 298 299 297 288 279 269 264 234 225 225 222 224 227 226 224 225 224 225 224 222 218 213 212 209 212 210 207
342 339 333 336 340 335 331 330 326 330 330 322 315 302 290 296 295 299 297 291 281 273 256 239 228 223 224 222 221 221 218 221 225 223 218 217 213 214 209 206 205 206 197
351 343 338 335 337 337 331 327 327 326 324 325 327 321 304 297 311 322 314 298 283 263 249 237 231 227 227 225 224 226 228 224 220 225 220 219 215 212 205 200 195 187 185
355 345 341 339 345 342 337 330 331 329 329 323 331 342 347 334 317 315 319 315 299 286 275 256 244 238 235 231 229 227 228 226 222 217 216 212 209 206 195 189 185 187 180
350 347 348 342 352 355 342 338 335 334 334 333 337 337 346 342 337 330 330 319 305 296 289 278 264 254 248 243 237 230 223 218 215 208 207 207 201 196 185 180 174 165 165
349 350 349 351 355 356 342 344 340 339 335 335 337 344 335 339 334 331 330 324 314 306 294 277 267 256 246 240 234 226 218 209 205 199 198 192 187 182 183 177 168 165 159
343 344 349 352 353 357 346 353 351 343 336 338 345 349 350 349 353 341 336 329 315 299 294 276 262 248 237 233 224 215 204 194 188 187 182 179 176 170 167 163 159 157 154
332 344 347 351 353 347 352 356 357 349 342 347 353 356 360 356 354 356 348 339 324 309 290 267 242 230 219 216 208 203 191 184 182 178 171 166 164 159 159 155 154 151 154
329 348 345 345 350 341 353 347 356 355 349 350 358 2 4 6 4 11 2 352 337 324 307 274 241 217 194 189 194 192 185 178 170 166 168 165 160 158 155 153 156 160 160
324 338 341 344 346 345 348 349 351 354 357 358 357 2 5 8 20 28 25 28 24 19 23 48 208 197 180 169 177 177 174 171 165 163 162 163 164 163 162 162 162 162 163
311 326 329 327 344 346 347 345 343 347 352 356 358 359 4 8 18 26 32 34 42 49 59 78 89 111 127 132 139 147 154 163 164 163 162 165 162 161 163 162 164 166 171
Height
806 804 802 801 801 803 804 806 807 809 812 814 817 819 821 825 828 831 833 837 840 842 845 848 852 855 857 859 862 864 866 868 869 869 870 871 871 873 873 873 875 877 879
808 805 802 801 800 801 802 802 804 805 807 809 811 813 816 819 823 826 828 831 834 837 839 843 846 849 852 854 856 858 860 862 865 865 865 867 868 868 870 870 871 873 874
810 807 804 801 800 799 799 799 799 801 803 804 806 807 810 813 817 821 823 826 829 832 834 837 840 843 845 847 848 851 854 856 858 860 860 862 863 864 866 867 867 869 870
813 810 806 803 801 800 798 797 797 798 799 801 802 803 805 808 812 816 819 821 824 827 829 832 834 836 838 840 842 844 846 848 850 853 855 856 857 859 861 863 864 865 866
814 810 808 804 802 800 798 796 794 794 795 797 799 801 802 804 807 811 815 817 819 822 824 826 827 830 832 834 836 837 839 841 843 846 848 849 851 853 854 856 859 860 862
814 812 807 803 801 800 797 794 791 791 791 793 794 796 798 800 803 806 809 811 813 815 817 819 821 823 825 827 829 831 833 834 834 836 839 840 842 844 847 850 855 856 859
816 812 809 805 802 801 797 793 792 789 788 789 789 791 793 795 798 800 803 805 807 809 811 813 815 816 818 819 821 822 824 825 828 830 831 833 836 836 840 844 847 851 851
817 813 810 807 802 800 797 794 790 789 787 784 784 786 788 790 792 794 796 798 800 802 804 806 808 810 810 812 813 815 817 818 820 823 825 828 831 833 835 840 843 845 849
818 814 811 808 803 799 796 792 791 788 785 784 781 781 782 784 786 789 791 792 793 795 797 799 801 803 804 806 807 808 810 811 814 817 819 824 828 831 835 837 839 843 845
819 814 811 808 805 801 796 792 789 787 785 782 777 777 777 778 780 782 785 787 787 789 790 792 794 796 798 801 802 802 804 806 809 812 814 819 822 825 829 832 834 836 838
818 814 809 804 801 798 794 790 787 785 781 779 775 773 773 771 774 776 778 780 782 783 785 785 786 788 791 794 796 797 798 801 804 807 809 813 816 820 824 827 830 832 833
817 813 808 803 800 796 792 789 785 782 779 777 773 771 768 767 768 769 772 773 775 777 777 778 780 782 784 787 789 792 794 797 799 801 804 806 809 813 818 822 825 827 829
815 811 806 801 798 796 793 787 782 777 777 775 772 772 765 763 763 764 765 766 767 770 771 771 773 775 778 780 782 785 788 791 793 795 797 799 803 807 811 816 819 822 825
813 808 803 799 796 792 789 786 782 779 778 773 770 768 764 762 760 760 760 760 760 762 764 765 767 769 772 773 776 777 780 782 785 788 791 795 798 801 804 808 812 817 821
814 808 803 800 795 792 789 784 781 777 775 772 770 767 764 762 759 758 759 757 756 756 757 759 759 762 764 767 768 771 773 775 778 782 785 789 793 796 799 803 807 811 815
814 809 804 800 793 791 788 781 778 776 772 769 766 765 762 760 757 756 755 752 751 752 752 751 752 755 756 759 762 764 766 769 771 774 779 783 786 790 793 797 801 804 809
816 810 805 800 795 791 788 783 776 767 767 764 761 760 760 757 753 750 747 745 745 746 745 745 746 747 748 749 752 755 757 759 764 767 771 775 779 784 787 791 794 799 803
813 809 805 800 796 790 788 784 779 772 765 759 759 758 755 752 747 742 741 739 740 739 739 738 738 739 740 741 743 745 749 752 756 760 764 768 772 776 780 783 787 792 797
811 809 805 798 792 789 787 783 776 772 766 762 755 750 746 744 743 739 738 738 738 735 733 733 732 733 733 734 735 736 739 743 747 750 755 759 763 769 774 777 782 787 794
814 807 799 796 792 786 785 783 778 772 767 762 756 752 745 743 739 736 732 734 734 732 730 729 728 727 727 728 729 729 731 733 737 741 746 752 755 761 765 772 777 783 791
807 802 799 796 791 787 786 781 777 771 767 763 758 754 751 743 740 737 733 731 731 729 727 726 723 721 721 722 723 723 724 726 730 733 740 744 749 754 762 769 775 780 786
806 803 797 793 789 787 785 781 777 774 772 766 759 754 748 746 739 738 734 732 731 728 726 725 722 719 717 718 718 719 720 721 726 730 735 740 746 752 758 766 773 779 785
805 800 795 791 790 788 785 782 778 777 774 767 761 753 750 748 743 737 734 731 732 728 725 724 722 720 715 716 716 718 717 719 721 727 732 738 746 751 757 765 772 779 785
801 798 796 794 791 789 785 783 778 776 774 769 762 757 755 750 748 737 736 734 732 729 726 724 723 719 717 714 718 719 719 722 723 727 734 740 745 752 759 766 773 778 785
799 797 795 794 792 789 786 782 779 776 773 768 765 762 758 755 748 741 740 736 734 731 728 726 726 722 717 715 720 723 723 726 727 731 736 744 749 754 759 766 774 781 787
797 796 794 792 790 788 786 784 782 779 775 771 768 765 761 756 751 746 742 740 737 735 735 731 731 727 721 720 723 724 729 731 732 735 737 746 751 758 764 769 775 781 788